Location: Astroquest
(35.1187°N, 89.7105°W)
Time: 12:01:59
(UTC-05:00)

Tiangong 2 - Visible Passes

Search period start: 18 June 2018 00:00
Search period end: 28 June 2018 00:00
Orbit: 292 x 298 km, 42.8° (Epoch: 17 June)

Date Brightness Start Highest point End Pass type
(mag) Time Alt. Az. Time Alt. Az. Time Alt. Az.
23 Jun 3.2 05:00:41 10° S 05:01:56 13° SE 05:03:12 10° ESE visible
24 Jun 1.9 05:05:36 10° SSW 05:07:52 28° SE 05:10:10 10° E visible
25 Jun 0.5 05:11:18 10° SW 05:13:50 73° SSE 05:16:23 10° ENE visible
26 Jun 3.4 03:46:28 12° ESE 03:46:28 12° ESE 03:46:57 10° ESE visible
27 Jun 2.3 03:51:57 26° ESE 03:51:57 26° ESE 03:53:28 10° ENE visible
